Regional Weather Roundup
Issued by NWS

Home | Current Version | Previous Version | Text Only | Print | Product List | Glossary Off
Versions: 1 2 3 4 5 6 7 8 9 10 11 12 13 14 15 16 17 18 19 20 21 22 23 24 25 26 27 28 29 30 31 32 33 34 35 36 37 38 39 40 41 42 43 44 45 46 47 48 49 50

000
ASUS43 KMPX 020510
RWRMN
WEATHER ROUNDUP FOR MINNESOTA
NATIONAL WEATHER SERVICE TWIN CITIES/CHANHASSEN MN
1200 AM CDT MON MAY 02 2016


NOTE: "FAIR" INDICATES FEW OR NO CLOUDS BELOW 12,000 FEET WITH NO
SIGNIFICANT WEATHER AND/OR OBSTRUCTIONS TO VISIBILITY. N/A MEANS
CURRENT SKY AND/OR WEATHER CONDITIONS ARE NOT AVAILABLE.

MNZ060>063-068>070-020600-
   Twin Cities Metro

CITY           SKY/WX    TMP DP  RH WIND       PRES   REMARKS
TWIN CITIES    CLEAR     52  35  52 N10       30.11S
ST PAUL        CLEAR     50  36  58 N5        30.12S
CRYSTAL        CLEAR     51  35  54 N5        30.11S
BLAINE         CLEAR     50  37  62 NE5       30.12S
EDEN PRAIRIE   CLEAR     51  35  54 N7        30.11R
SOUTH ST PAUL  CLEAR     51  35  53 N7        30.11S
LAKE ELMO      FAIR      48  34  57 N5        30.12S
$$
MNZ001>005-007-008-013>017-022>024-027-028-020600-
   Northwest Minnesota

CITY           SKY/WX    TMP DP  RH WIND       PRES   REMARKS
BEMIDJI        CLEAR     35  28  76 CALM      30.12F
HALLOCK        MOCLDY    48  27  43 SE7       30.10F
ROSEAU         PTCLDY    43  36  75 S5        30.12F
WARROAD        PTCLDY    41  34  75 CALM      30.13S
THIEF RVR FALL CLOUDY    45  25  45 CALM      30.13F
CROOKSTON      PTCLDY    50  28  43 SE5       30.13F
FOSSTON        CLEAR     37  27  65 CALM      30.14F
DETROIT LAKES  CLEAR     50  34  53 CALM      30.14S
MOORHEAD       CLEAR     48  28  46 N3        30.14S
PARK RAPIDS    CLEAR     43  31  62 CALM      30.12F
MAHNOMEN       FAIR      42  31  64 CALM      30.13S
$$
MNZ006-009>011-018-025>026-020600-
   North Central Minnesota

CITY           SKY/WX    TMP DP  RH WIND       PRES   REMARKS
BAUDETTE       CLEAR     37  33  85 CALM      30.12F
FLAG ISLAND    CLOUDY    45  30  57 S3        30.11S
INTL FALLS     CLEAR     31  29  92 CALM      30.12F
WASKISH        CLEAR     39  37  93 CALM      30.13S
BIG FORK       CLEAR     37  30  75 CALM      30.13S
LONGVILLE      PTCLDY    37  34  87 CALM      30.12S
GRAND RAPIDS   CLEAR     39  28  65 CALM      30.14S
CRANE LAKE     CLEAR     30  28  93 CALM      30.15S
ORR            PTCLDY    43  28  56 CALM      30.11S
COOK           CLEAR     37  30  75 CALM      30.14S
WALKER         FAIR      40  30  67 W3        30.12S
$$
MNZ012-019>021-037-020600-
   Northeast Minnesota

CITY           SKY/WX    TMP DP  RH WIND       PRES   REMARKS
DULUTH         CLEAR     39  31  72 E3        30.14S
ELY            CLEAR     37  30  75 CALM      30.14S
HIBBING        CLEAR     32  29  88 CALM      30.13F
EVELETH        CLEAR     34  30  86 CALM      30.15S
DULUTH HARBOR  CLEAR     37  36  93 N3        30.17S
TWO HARBORS    CLEAR     37  32  81 CALM      30.13S
SILVER BAY     CLEAR     32  28  86 CALM      30.13F
GRAND MARAIS     N/A     35  31  85 NW3       30.16S
G MARAIS ARPRT CLEAR     30  25  80 CALM      30.15S
$$
MNZ029>031-032-039>041-046>048-054>057-064-020600-
   West Central Minnesota

CITY           SKY/WX    TMP DP  RH WIND       PRES   REMARKS
FERGUS FALLS   CLEAR     48  32  53 CALM      30.11S
WHEATON        CLEAR     48  34  57 W3        30.15S
MORRIS         CLEAR     46  32  57 W3        30.12F
ALEXANDRIA     CLEAR     46  31  55 CALM      30.14S
ELBOW LAKE     FAIR      47  38  72 E5        30.13S
WADENA         CLEAR     43  32  65 CALM      30.12S
GLENWOOD       CLEAR     48  30  49 S3        30.14S
APPLETON       CLEAR     45  36  70 CALM      30.13S
BENSON         CLEAR     41  30  65 CALM      30.14S
ORTONVILLE     CLEAR     46  37  71 CALM      30.13S
MADISON        CLEAR     43  34  70 W5        30.15R
WILLMAR        FAIR      46  34  61 CALM      30.15S
$$
MNZ033>034-036-042>043-049>051-058-059-020600-
   Central Minnesota

CITY           SKY/WX    TMP DP  RH WIND       PRES   REMARKS
ST CLOUD       CLEAR     43  32  65 CALM      30.13S
SAUK CENTRE    FAIR      41  32  70 CALM      30.13F
PAYNESVILLE    CLEAR     40  32  74 CALM      30.14S
AITKIN         CLEAR     39  34  81 CALM      30.12S
PINE RIVER     CLEAR     39  32  75 CALM      30.16S
BRAINERD       CLEAR     41  34  76 CALM      30.13S
STAPLES        CLEAR     39  30  70 SE3       30.13S
LONG PRAIRIE   FAIR      41  32  70 CALM      30.14S
LITTLE FALLS   CLEAR     41  32  70 CALM      30.13F
LITCHFIELD     CLEAR     45  41  87 CALM      30.14S
BUFFALO        CLEAR     47  34  62 CALM      30.13F
MAPLE LAKE     CLEAR     45  36  72 CALM      30.14S
HUTCHINSON     MOCLDY    45  37  71 CALM      30.14S
$$
MNZ037-044-045-052-053-020600-
   East Central Minnesota

CITY           SKY/WX    TMP DP  RH WIND       PRES   REMARKS
PRINCETON      CLEAR     41  34  75 CALM      30.13S
MORA           CLEAR     36  32  87 CALM      30.14F
CAMBRIDGE      CLEAR     45  34  65 CALM      30.11S
RUSH CITY      PTCLDY    44  33  65 NE3       30.13S
MOOSE LAKE     CLEAR     37  32  81 NE5       30.13S
HINCKLEY       FAIR      41  34  75 CALM      30.13S
CLOQUET        CLEAR     37  32  81 CALM      30.14S
MCGREGOR       CLEAR     41  32  70 CALM      30.14S
$$
MNZ071>073-080-081-089-090-097-098-020600-
   Southwest Minnesota

CITY           SKY/WX    TMP DP  RH WIND       PRES   REMARKS
MONTEVIDEO     CLEAR     46  30  53 CALM      30.16R
GRANITE FALLS  CLEAR     45  35  67 CALM      30.15S
CANBY          CLEAR     42  37  83 SW5       30.16R
MARSHALL       CLEAR     42  34  73 SW7       30.15S
REDWOOD FALLS  CLEAR     49  32  52 CALM      30.14R
OLIVIA         CLEAR     46  34  61 CALM      30.13S
PIPESTONE      CLEAR     45  34  65 CALM      30.15S
WINDOM         CLEAR     43  39  87 CALM      30.15R
WORTHINGTON    CLEAR     40  37  89 W6        30.16S
JACKSON        PTCLDY    41  36  81 W3        30.15R
TRACY          CLEAR     44  36  72 CALM      30.15S
SLAYTON        CLEAR     40  36  86 W3        30.16S
$$
MNZ065>067-074>077-082>085-091>093-020600-
   South Central Minnesota

CITY           SKY/WX    TMP DP  RH WIND       PRES   REMARKS
MANKATO        CLEAR     48  36  61 NW6       30.12R
NEW ULM        CLEAR     45  36  70 NW3       30.13R
ST JAMES       CLEAR     39  34  81 W3        30.14R
FAIRMONT       MOCLDY    46  36  66 NW5       30.13R
GLENCOE        CLEAR     49  38  65 N3        30.12S
FARIBAULT      CLEAR     43  37  81 CALM      30.11S
OWATONNA       CLEAR     45  39  81 SW3       30.11S
WASECA         CLEAR     45  37  76 W3        30.12S
ALBERT LEA     MOCLDY    48  43  81 W1        30.11R
$$
MNZ078>079-086>088-094>096-020600-
   Southeast Minnesota

CITY           SKY/WX    TMP DP  RH WIND       PRES   REMARKS
ROCHESTER      PTCLDY    45  42  89 W9        30.10S
RED WING       CLEAR     54  34  47 NE6       30.09R
STANTON        CLEAR     44  37  76 CALM      30.10R
DODGE CENTER   PTCLDY    39  37  93 W6        30.10S
WINONA         MOCLDY    48  43  81 NW3       30.11R
AUSTIN         CLEAR     43  39  87 CALM      30.11R
PRESTON        PTCLDY    43  39  85 NW6       30.10R
$$
ABBREVIATIONS USED IN REMARKS
   TC - TEMPERATURES IN CELSIUS
  WCI - WIND CHILL INDEX
   HX - HEAT INDEX
  VSB - VISIBILITY
$$




USA.gov is the U.S. government's official web portal to all federal, state and local government web resources and services.